AAL2727 KPHX-KSAN

Flight info

Callsign AAL2727
Flight time 0h 52m
Altitude 28000
Route FYRBD1 MOHAK J2 HOGGZ LUCKI1
Aircraft A320/M-SDE3FGHIRWY/LB1

Departure

Time 2026-05-05 21:37
Airport Phoenix Sky Harbor International Airport (KPHX)

Arrival

Time 2026-05-05 22:29
Airport San Diego International Airport (KSAN)
Time Latitude Longitude Altitude Speed Heading
2026-05-05 21:14 33.43794 -111.99877 1125 ft 0 kts 269°
2026-05-05 21:29 33.43794 -111.99863 1115 ft 3 kts 277°
2026-05-05 21:29 33.43789 -111.99840 1118 ft 3 kts 310°
2026-05-05 21:29 33.43774 -111.99827 1116 ft 3 kts 352°
2026-05-05 21:29 33.43763 -111.99826 1115 ft 1 kts
2026-05-05 21:30 33.43762 -111.99826 1115 ft 0 kts
2026-05-05 21:32 33.43769 -111.99826 1118 ft 3 kts
2026-05-05 21:32 33.43815 -111.99826 1119 ft 11 kts
2026-05-05 21:32 33.43892 -111.99808 1124 ft 10 kts 51°
2026-05-05 21:33 33.43904 -111.99716 1126 ft 13 kts 89°
2026-05-05 21:33 33.43904 -111.99575 1126 ft 20 kts 90°
2026-05-05 21:33 33.43905 -111.99398 1126 ft 22 kts 90°
2026-05-05 21:33 33.43900 -111.99257 1126 ft 11 kts 110°
2026-05-05 21:34 33.43822 -111.99225 1120 ft 14 kts 180°
2026-05-05 21:34 33.43713 -111.99225 1121 ft 18 kts 180°
2026-05-05 21:34 33.43569 -111.99226 1121 ft 22 kts 180°
2026-05-05 21:34 33.43445 -111.99236 1118 ft 12 kts 197°
2026-05-05 21:35 33.43355 -111.99245 1116 ft 14 kts 181°
2026-05-05 21:35 33.43250 -111.99247 1121 ft 16 kts 184°
2026-05-05 21:35 33.43163 -111.99314 1132 ft 14 kts 224°
2026-05-05 21:35 33.43106 -111.99406 1132 ft 15 kts 259°
2026-05-05 21:36 33.43104 -111.99437 1132 ft 1 kts 269°
2026-05-05 21:36 33.43104 -111.99582 1132 ft 48 kts 269°
2026-05-05 21:36 33.43103 -112.00257 1132 ft 111 kts 270°
2026-05-05 21:36 33.43104 -112.01380 1135 ft 157 kts 270°
2026-05-05 21:37 33.43101 -112.02691 1674 ft 157 kts 263°
2026-05-05 21:37 33.43040 -112.03985 2229 ft 156 kts 263°
2026-05-05 21:37 33.42969 -112.05275 2784 ft 156 kts 264°
2026-05-05 21:37 33.42898 -112.06635 3083 ft 174 kts 264°
2026-05-05 21:38 33.42820 -112.07633 3241 ft 189 kts 258°
2026-05-05 21:38 33.42357 -112.09204 3482 ft 213 kts 248°
2026-05-05 21:38 33.41792 -112.10953 3858 ft 237 kts 249°
2026-05-05 21:38 33.41185 -112.12858 4557 ft 250 kts 250°
2026-05-05 21:39 33.40563 -112.14830 5378 ft 256 kts 248°
2026-05-05 21:39 33.39652 -112.16661 6286 ft 261 kts 226°
2026-05-05 21:39 33.38122 -112.17841 7154 ft 267 kts 200°
2026-05-05 21:39 33.36259 -112.18045 8017 ft 277 kts 173°
2026-05-05 21:40 33.34380 -112.17436 8883 ft 282 kts 166°
2026-05-05 21:40 33.32492 -112.16751 9760 ft 285 kts 166°
2026-05-05 21:40 33.30582 -112.16060 10547 ft 288 kts 167°
2026-05-05 21:40 33.28595 -112.15398 10929 ft 306 kts 173°
2026-05-05 21:41 33.26440 -112.15549 11114 ft 321 kts 201°
2026-05-05 21:41 33.24558 -112.16986 11558 ft 328 kts 228°
2026-05-05 21:41 33.23451 -112.19364 12261 ft 334 kts 254°
2026-05-05 21:41 33.23099 -112.22088 12966 ft 337 kts 259°
2026-05-05 21:42 33.22566 -112.24847 13737 ft 337 kts 249°
2026-05-05 21:42 33.21525 -112.27312 14400 ft 337 kts 235°
2026-05-05 21:42 33.20168 -112.29601 15077 ft 339 kts 233°
2026-05-05 21:42 33.18747 -112.31852 15721 ft 341 kts 232°
2026-05-05 21:43 33.17286 -112.34092 16355 ft 343 kts 232°
2026-05-05 21:43 33.15807 -112.36341 17048 ft 343 kts 232°
2026-05-05 21:43 33.14339 -112.38574 17823 ft 342 kts 233°
2026-05-05 21:43 33.12873 -112.40821 18502 ft 343 kts 233°
2026-05-05 21:44 33.11413 -112.43069 19197 ft 342 kts 233°
2026-05-05 21:44 33.09960 -112.45312 19953 ft 340 kts 233°
2026-05-05 21:44 33.08515 -112.47544 20696 ft 339 kts 233°
2026-05-05 21:44 33.07076 -112.49766 21380 ft 338 kts 233°
2026-05-05 21:45 33.05644 -112.51979 22092 ft 336 kts 233°
2026-05-05 21:45 33.04221 -112.54173 22829 ft 334 kts 233°
2026-05-05 21:45 33.02807 -112.56355 23523 ft 332 kts 233°
2026-05-05 21:45 33.01400 -112.58530 24058 ft 331 kts 233°
2026-05-05 21:46 32.99997 -112.60694 24547 ft 331 kts 233°
2026-05-05 21:46 32.98607 -112.62838 25002 ft 331 kts 233°
2026-05-05 21:46 32.97243 -112.65044 25452 ft 331 kts 237°
2026-05-05 21:46 32.96141 -112.67463 25887 ft 333 kts 243°
2026-05-05 21:47 32.95362 -112.70082 26310 ft 338 kts 250°
2026-05-05 21:47 32.94911 -112.72848 26727 ft 343 kts 255°
2026-05-05 21:47 32.94541 -112.75658 27150 ft 343 kts 254°
2026-05-05 21:47 32.94162 -112.78467 27581 ft 344 kts 254°
2026-05-05 21:48 32.93778 -112.81283 27889 ft 346 kts 254°
2026-05-05 21:48 32.93395 -112.84102 27944 ft 343 kts 254°
2026-05-05 21:48 32.93020 -112.86895 27942 ft 341 kts 254°
2026-05-05 21:48 32.92645 -112.89679 27938 ft 340 kts 254°
2026-05-05 21:49 32.92270 -112.92459 27937 ft 340 kts 254°
2026-05-05 21:49 32.91893 -112.95235 27944 ft 340 kts 253°
2026-05-05 21:49 32.91514 -112.98009 27931 ft 340 kts 253°
2026-05-05 21:49 32.91136 -113.00783 27924 ft 340 kts 253°
2026-05-05 21:50 32.90757 -113.03556 27920 ft 340 kts 253°
2026-05-05 21:50 32.90376 -113.06330 27921 ft 340 kts 253°
2026-05-05 21:50 32.89995 -113.09106 27919 ft 340 kts 253°
2026-05-05 21:50 32.89618 -113.11847 27955 ft 340 kts 253°
2026-05-05 21:51 32.89230 -113.14658 27936 ft 340 kts 253°
2026-05-05 21:51 32.88852 -113.17399 27930 ft 341 kts 253°
2026-05-05 21:51 32.88468 -113.20181 27924 ft 341 kts 253°
2026-05-05 21:51 32.88082 -113.22967 27921 ft 341 kts 253°
2026-05-05 21:52 32.87312 -113.28538 27911 ft 341 kts 253°
2026-05-05 21:52 32.86928 -113.31325 27911 ft 341 kts 253°
2026-05-05 21:52 32.86543 -113.34109 27911 ft 341 kts 253°
2026-05-05 21:53 32.86156 -113.36899 27897 ft 341 kts 253°
2026-05-05 21:53 32.85770 -113.39684 27898 ft 341 kts 253°
2026-05-05 21:53 32.85380 -113.42471 27898 ft 341 kts 253°
2026-05-05 21:53 32.84984 -113.45258 27897 ft 342 kts 253°
2026-05-05 21:54 32.84588 -113.48044 27897 ft 342 kts 254°
2026-05-05 21:54 32.84194 -113.50835 27886 ft 342 kts 254°
2026-05-05 21:54 32.83800 -113.53621 27885 ft 342 kts 254°
2026-05-05 21:54 32.83409 -113.56378 27918 ft 342 kts 254°
2026-05-05 21:55 32.83010 -113.59202 27918 ft 343 kts 254°
2026-05-05 21:55 32.82613 -113.62002 27919 ft 343 kts 254°
2026-05-05 21:55 32.82224 -113.64758 27920 ft 343 kts 254°
2026-05-05 21:55 32.81829 -113.67549 27921 ft 343 kts 254°
2026-05-05 21:56 32.81434 -113.70343 27918 ft 343 kts 254°
2026-05-05 21:56 32.81036 -113.73145 27919 ft 343 kts 254°
2026-05-05 21:56 32.80638 -113.75949 27940 ft 343 kts 254°
2026-05-05 21:56 32.80240 -113.78749 27922 ft 344 kts 254°
2026-05-05 21:57 32.79839 -113.81555 27925 ft 345 kts 254°
2026-05-05 21:57 32.79436 -113.84369 27908 ft 345 kts 254°
2026-05-05 21:57 32.79033 -113.87187 27905 ft 346 kts 254°
2026-05-05 21:57 32.78631 -113.89970 27895 ft 346 kts 254°
2026-05-05 21:58 32.78223 -113.92794 27892 ft 347 kts 254°
2026-05-05 21:58 32.77817 -113.95615 27892 ft 347 kts 254°
2026-05-05 21:58 32.77565 -113.98487 27892 ft 353 kts 261°
2026-05-05 21:58 32.77534 -114.01410 27886 ft 354 kts 261°
2026-05-05 21:59 32.77505 -114.04332 27887 ft 354 kts 261°
2026-05-05 21:59 32.77482 -114.07265 27896 ft 355 kts 263°
2026-05-05 21:59 32.77530 -114.10210 27889 ft 357 kts 264°
2026-05-05 21:59 32.77644 -114.13164 27886 ft 359 kts 265°
2026-05-05 22:00 32.77789 -114.16127 27876 ft 359 kts 265°
2026-05-05 22:00 32.77941 -114.19094 27876 ft 360 kts 265°
2026-05-05 22:00 32.78084 -114.22055 27877 ft 360 kts 265°
2026-05-05 22:00 32.78216 -114.25025 27878 ft 360 kts 265°
2026-05-05 22:01 32.78337 -114.27996 27871 ft 359 kts 264°
2026-05-05 22:01 32.78452 -114.30965 27959 ft 361 kts 265°
2026-05-05 22:01 32.78564 -114.33949 27910 ft 363 kts 265°
2026-05-05 22:01 32.78688 -114.36955 27891 ft 366 kts 268°
2026-05-05 22:02 32.79119 -114.39932 27915 ft 377 kts 277°
2026-05-05 22:02 32.79937 -114.42963 27908 ft 382 kts 280°
2026-05-05 22:02 32.80760 -114.45924 27904 ft 383 kts 279°
2026-05-05 22:02 32.81593 -114.48938 27906 ft 384 kts 279°
2026-05-05 22:03 32.82423 -114.51959 27906 ft 385 kts 279°
2026-05-05 22:03 32.83257 -114.54996 27906 ft 386 kts 279°
2026-05-05 22:03 32.84089 -114.58027 27908 ft 386 kts 279°
2026-05-05 22:03 32.84924 -114.61067 27908 ft 387 kts 279°
2026-05-05 22:04 32.85758 -114.64109 27927 ft 387 kts 279°
2026-05-05 22:04 32.86592 -114.67154 27927 ft 387 kts 279°
2026-05-05 22:04 32.87395 -114.70206 27926 ft 384 kts 276°
2026-05-05 22:04 32.87836 -114.73304 27927 ft 376 kts 268°
2026-05-05 22:05 32.87858 -114.76382 27926 ft 371 kts 263°
2026-05-05 22:05 32.87783 -114.79454 27928 ft 372 kts 263°
2026-05-05 22:05 32.87711 -114.82528 27928 ft 372 kts 263°
2026-05-05 22:05 32.87643 -114.85608 27926 ft 372 kts 263°
2026-05-05 22:06 32.87577 -114.88684 27926 ft 372 kts 263°
2026-05-05 22:06 32.87511 -114.91761 27925 ft 372 kts 263°
2026-05-05 22:06 32.87444 -114.94835 27924 ft 372 kts 263°
2026-05-05 22:06 32.87375 -114.97906 27926 ft 372 kts 263°
2026-05-05 22:07 32.87305 -115.00983 27941 ft 372 kts 263°
2026-05-05 22:07 32.87233 -115.04060 27934 ft 373 kts 264°
2026-05-05 22:07 32.87160 -115.07110 27933 ft 375 kts 264°
2026-05-05 22:07 32.87085 -115.10221 27908 ft 377 kts 264°
2026-05-05 22:08 32.87008 -115.13354 27903 ft 380 kts 264°
2026-05-05 22:08 32.86933 -115.16499 27904 ft 381 kts 264°
2026-05-05 22:08 32.86857 -115.19659 27905 ft 383 kts 264°
2026-05-05 22:08 32.86781 -115.22828 27908 ft 384 kts 264°
2026-05-05 22:09 32.86699 -115.26003 27910 ft 385 kts 264°
2026-05-05 22:09 32.86613 -115.29185 27911 ft 385 kts 264°
2026-05-05 22:09 32.86527 -115.32379 27913 ft 386 kts 264°
2026-05-05 22:09 32.86295 -115.35544 27921 ft 384 kts 258°
2026-05-05 22:10 32.85862 -115.38681 27918 ft 385 kts 258°
2026-05-05 22:10 32.85420 -115.41826 27646 ft 387 kts 258°
2026-05-05 22:10 32.84967 -115.45010 26475 ft 395 kts 259°
2026-05-05 22:10 32.84513 -115.48215 25994 ft 388 kts 259°
2026-05-05 22:11 32.84053 -115.51357 25517 ft 385 kts 258°
2026-05-05 22:11 32.83555 -115.54487 25030 ft 385 kts 258°
2026-05-05 22:11 32.83036 -115.57613 24534 ft 386 kts 258°
2026-05-05 22:11 32.82508 -115.60739 24048 ft 386 kts 258°
2026-05-05 22:12 32.81978 -115.63868 23586 ft 386 kts 259°
2026-05-05 22:12 32.81451 -115.67006 23019 ft 386 kts 259°
2026-05-05 22:12 32.80932 -115.70134 22539 ft 385 kts 259°
2026-05-05 22:12 32.80422 -115.73244 22053 ft 382 kts 259°
2026-05-05 22:13 32.79916 -115.76333 21564 ft 380 kts 259°
2026-05-05 22:13 32.79408 -115.79408 21094 ft 377 kts 259°
2026-05-05 22:13 32.78905 -115.82461 20610 ft 375 kts 259°
2026-05-05 22:13 32.78466 -115.85498 20133 ft 372 kts 265°
2026-05-05 22:14 32.78245 -115.88552 19665 ft 370 kts 265°
2026-05-05 22:14 32.78022 -115.91586 19199 ft 367 kts 265°
2026-05-05 22:14 32.77799 -115.94562 18740 ft 364 kts 265°
2026-05-05 22:14 32.77572 -115.97546 18286 ft 361 kts 265°
2026-05-05 22:15 32.77345 -116.00516 17692 ft 360 kts 265°
2026-05-05 22:15 32.77122 -116.03458 17251 ft 356 kts 265°
2026-05-05 22:15 32.76902 -116.06374 16802 ft 353 kts 265°
2026-05-05 22:15 32.76683 -116.09261 16356 ft 349 kts 265°
2026-05-05 22:16 32.76468 -116.12123 15915 ft 348 kts 265°
2026-05-05 22:16 32.76251 -116.14981 15491 ft 346 kts 265°
2026-05-05 22:16 32.76034 -116.17825 15049 ft 344 kts 265°
2026-05-05 22:16 32.75819 -116.20642 14613 ft 341 kts 265°
2026-05-05 22:17 32.75605 -116.23425 14304 ft 333 kts 265°
2026-05-05 22:17 32.75397 -116.26111 14128 ft 320 kts 266°
2026-05-05 22:17 32.75196 -116.28703 13989 ft 310 kts 265°
2026-05-05 22:17 32.74995 -116.31285 13590 ft 316 kts 266°
2026-05-05 22:18 32.74796 -116.33871 13151 ft 313 kts 266°
2026-05-05 22:18 32.74598 -116.36438 12770 ft 308 kts 266°
2026-05-05 22:18 32.74401 -116.38954 12354 ft 306 kts 265°
2026-05-05 22:18 32.74204 -116.41476 11855 ft 306 kts 265°
2026-05-05 22:19 32.74006 -116.44001 11309 ft 308 kts 266°
2026-05-05 22:19 32.73809 -116.46488 11180 ft 296 kts 266°
2026-05-05 22:19 32.73618 -116.48878 11032 ft 285 kts 266°
2026-05-05 22:19 32.73433 -116.51152 10898 ft 275 kts 266°
2026-05-05 22:20 32.73230 -116.53380 10600 ft 272 kts 266°
2026-05-05 22:20 32.73014 -116.55627 10194 ft 273 kts 264°
2026-05-05 22:20 32.72792 -116.57860 9793 ft 273 kts 264°
2026-05-05 22:20 32.72569 -116.60110 9381 ft 274 kts 264°
2026-05-05 22:21 32.72348 -116.62351 9070 ft 271 kts 264°
2026-05-05 22:21 32.72128 -116.64572 8725 ft 270 kts 264°
2026-05-05 22:21 32.71914 -116.66788 8405 ft 268 kts 265°
2026-05-05 22:21 32.71729 -116.68983 8030 ft 268 kts 265°
2026-05-05 22:22 32.71559 -116.71187 7625 ft 267 kts 266°
2026-05-05 22:22 32.71395 -116.73371 7302 ft 265 kts 265°
2026-05-05 22:22 32.71233 -116.75554 6965 ft 265 kts 265°
2026-05-05 22:22 32.71069 -116.77732 6623 ft 265 kts 265°
2026-05-05 22:23 32.70899 -116.79914 6271 ft 265 kts 265°
2026-05-05 22:23 32.70647 -116.82070 5922 ft 264 kts 255°
2026-05-05 22:23 32.70033 -116.84116 5620 ft 261 kts 251°
2026-05-05 22:23 32.69401 -116.86130 5321 ft 259 kts 251°
2026-05-05 22:24 32.68780 -116.88123 5028 ft 256 kts 251°
2026-05-05 22:24 32.68174 -116.90115 4712 ft 256 kts 251°
2026-05-05 22:24 32.67586 -116.92113 4412 ft 257 kts 253°
2026-05-05 22:24 32.67358 -116.94185 4116 ft 255 kts 277°
2026-05-05 22:25 32.67793 -116.96212 3818 ft 252 kts 287°
2026-05-05 22:25 32.68288 -116.98198 3530 ft 250 kts 286°
2026-05-05 22:25 32.68775 -117.00152 3234 ft 242 kts 286°
2026-05-05 22:25 32.69234 -117.02008 2961 ft 227 kts 285°
2026-05-05 22:26 32.69671 -117.03779 2704 ft 218 kts 285°
2026-05-05 22:26 32.69945 -117.04897 2527 ft 207 kts 285°
2026-05-05 22:26 32.70328 -117.06461 2273 ft 190 kts 285°
2026-05-05 22:26 32.70679 -117.07896 2043 ft 172 kts 284°
2026-05-05 22:27 32.71090 -117.09577 1730 ft 145 kts 284°
2026-05-05 22:27 32.71273 -117.10327 1564 ft 136 kts 284°
2026-05-05 22:27 32.71530 -117.11390 1343 ft 133 kts 285°
2026-05-05 22:27 32.71783 -117.12443 1125 ft 132 kts 285°
2026-05-05 22:28 32.72117 -117.13823 848 ft 133 kts 287°
2026-05-05 22:28 32.72289 -117.14537 726 ft 132 kts 286°
2026-05-05 22:28 32.72541 -117.15577 522 ft 132 kts 286°
2026-05-05 22:28 32.72795 -117.16621 328 ft 130 kts 285°
2026-05-05 22:29 32.73034 -117.17656 108 ft 129 kts 285°
2026-05-05 22:29 32.73272 -117.18633 28 ft 112 kts 286°
2026-05-05 22:29 32.73452 -117.19364 25 ft 69 kts 286°
2026-05-05 22:29 32.73547 -117.19754 26 ft 42 kts 285°
2026-05-05 22:30 32.73623 -117.20081 24 ft 38 kts 286°